Time,TemperatureF,DewpointF,PressureIn,WindDirection,WindDirectionDegrees,WindSpeedMPH,WindSpeedGustMPH,Humidity,HourlyPrecipIn,Conditions,Clouds,dailyrainin,SoftwareType,DateUTC
2013-01-11 01:03:00,39.0,-99.9,-100.00,West,275,8.0,15.0,-999,-99.99,,,-99.99,,2013-01-11 09:03:00,
2013-01-11 01:12:00,39.0,-99.9,-100.00,West,275,8.0,15.0,-999,-99.99,,,-99.99,,2013-01-11 09:12:00,
2013-01-11 01:23:00,39.0,-99.9,-100.00,West,275,8.0,15.0,-999,-99.99,,,-99.99,,2013-01-11 09:23:00,
2013-01-11 02:02:00,40.0,-99.9,-100.00,SW,233,18.0,21.0,-999,-99.99,,,-99.99,,2013-01-11 10:02:00,
2013-01-11 02:12:00,40.0,-99.9,-100.00,SW,233,18.0,21.0,-999,-99.99,,,-99.99,,2013-01-11 10:12:00,
2013-01-11 02:30:00,37.0,-99.9,-100.00,SW,226,14.0,20.0,-999,-99.99,,,-99.99,,2013-01-11 10:30:00,
2013-01-11 03:03:00,39.0,-99.9,-100.00,West,273,12.0,12.0,-999,-99.99,,,-99.99,,2013-01-11 11:03:00,
2013-01-11 03:12:00,39.0,-99.9,-100.00,West,273,12.0,12.0,-999,-99.99,,,-99.99,,2013-01-11 11:12:00,
2013-01-11 03:23:00,37.0,-99.9,-100.00,SW,226,14.0,20.0,-999,-99.99,,,-99.99,,2013-01-11 11:23:00,
2013-01-11 04:53:00,36.0,-99.9,-100.00,West,263,13.0,23.0,-999,-99.99,,,-99.99,,2013-01-11 12:53:00,
2013-01-11 05:03:00,36.0,-99.9,-100.00,West,263,13.0,23.0,-999,-99.99,,,-99.99,,2013-01-11 13:03:00,
2013-01-11 06:30:00,38.0,-99.9,-100.00,West,266,9.0,14.0,-999,-99.99,,,-99.99,,2013-01-11 14:30:00,
2013-01-11 07:23:00,38.0,-99.9,-100.00,West,266,9.0,14.0,-999,-99.99,,,-99.99,,2013-01-11 15:23:00,
2013-01-11 09:50:00,45.0,-99.9,-100.00,WNW,285,6.0,10.0,-999,-99.99,,,-99.99,,2013-01-11 17:50:00,
2013-01-11 10:24:00,44.0,-99.9,-100.00,WNW,285,7.0,15.0,-999,-99.99,,,-99.99,,2013-01-11 18:24:00,
2013-01-11 10:33:00,45.0,-99.9,-100.00,WNW,285,6.0,10.0,-999,-99.99,,,-99.99,,2013-01-11 18:33:00,
2013-01-11 10:43:00,45.0,-99.9,-100.00,WNW,285,6.0,10.0,-999,-99.99,,,-99.99,,2013-01-11 18:43:00,
2013-01-11 12:23:00,47.0,-99.9,-100.00,West,263,14.0,18.0,-999,-99.99,,,-99.99,,2013-01-11 20:23:00,
2013-01-11 12:33:00,47.0,-99.9,-100.00,West,263,14.0,18.0,-999,-99.99,,,-99.99,,2013-01-11 20:33:00,
2013-01-11 12:40:00,50.0,-99.9,-100.00,WNW,282,8.0,15.0,-999,-99.99,,,-99.99,,2013-01-11 20:40:00,
2013-01-11 13:23:00,50.0,-99.9,-100.00,WNW,282,8.0,15.0,-999,-99.99,,,-99.99,,2013-01-11 21:23:00,
2013-01-11 13:33:00,50.0,-99.9,-100.00,WNW,282,8.0,15.0,-999,-99.99,,,-99.99,,2013-01-11 21:33:00,
2013-01-11 14:50:00,49.0,-99.9,-100.00,WNW,288,14.0,14.0,-999,-99.99,,,-99.99,,2013-01-11 22:50:00,
2013-01-11 15:33:00,49.0,-99.9,-100.00,WNW,288,14.0,14.0,-999,-99.99,,,-99.99,,2013-01-11 23:33:00,
2013-01-11 15:43:00,49.0,-99.9,-100.00,WNW,288,14.0,14.0,-999,-99.99,,,-99.99,,2013-01-11 23:43:00,
2013-01-11 17:50:00,43.0,-99.9,-100.00,NW,305,4.0,6.0,-999,-99.99,,,-99.99,,2013-01-12 01:50:00,
2013-01-11 18:20:00,42.0,-99.9,-100.00,West,272,7.0,9.0,-999,-99.99,,,-99.99,,2013-01-12 02:20:00,
2013-01-11 18:33:00,43.0,-99.9,-100.00,NW,305,4.0,6.0,-999,-99.99,,,-99.99,,2013-01-12 02:33:00,
2013-01-11 18:43:00,43.0,-99.9,-100.00,NW,305,4.0,6.0,-999,-99.99,,,-99.99,,2013-01-12 02:43:00,
2013-01-11 19:03:00,42.0,-99.9,-100.00,West,272,7.0,9.0,-999,-99.99,,,-99.99,,2013-01-12 03:03:00,
2013-01-11 19:12:00,42.0,-99.9,-100.00,West,272,7.0,9.0,-999,-99.99,,,-99.99,,2013-01-12 03:12:00,
2013-01-11 19:20:00,44.0,-99.9,-100.00,SW,216,13.0,13.0,-999,-99.99,,,-99.99,,2013-01-12 03:20:00,
2013-01-11 20:03:00,44.0,-99.9,-100.00,SW,216,13.0,13.0,-999,-99.99,,,-99.99,,2013-01-12 04:03:00,
2013-01-11 20:12:00,44.0,-99.9,-100.00,SW,216,13.0,13.0,-999,-99.99,,,-99.99,,2013-01-12 04:12:00,
2013-01-11 21:53:00,42.0,-99.9,-100.00,SW,215,0.0,6.0,-999,-99.99,,,-99.99,,2013-01-12 05:53:00,
2013-01-11 22:00:00,39.0,-99.9,-100.00,NNW,328,4.0,7.0,-999,-99.99,,,-99.99,,2013-01-12 06:00:00,
2013-01-11 22:03:00,42.0,-99.9,-100.00,SW,215,0.0,6.0,-999,-99.99,,,-99.99,,2013-01-12 06:03:00,
2013-01-11 22:33:00,39.0,-99.9,-100.00,NNW,328,4.0,7.0,-999,-99.99,,,-99.99,,2013-01-12 06:33:00,
2013-01-11 22:43:00,39.0,-99.9,-100.00,NNW,328,4.0,7.0,-999,-99.99,,,-99.99,,2013-01-12 06:43:00,
2013-01-11 22:53:00,39.0,-99.9,-100.00,NNW,328,4.0,7.0,-999,-99.99,,,-99.99,,2013-01-12 06:53:00,